User: anonymous   Login
Location: Roanoke
(37.2710°N, 79.9420°W)
Time: 19:39:51
(UTC-05:00)
Language:

FENGYUN 3A - Orbit

View from above orbital plane
View from above orbital plane
View from above satellite
View from above satellite

Ground track
Ground track

The orbit data is extracted from the following two-line orbital elements,

1 32958U 08026A   17350.47246582 -.00000006  00000-0  16669-4 0  9996
2 32958  98.3937   9.9039 0010770 107.4388 252.7973 14.19685440495199
Epoch (UTC): 16 December 2017 11:20:21
Eccentricity: 0.0010770
inclination: 98.3937°
perigee height: 818 km
apogee height: 834 km
right ascension of ascending node: 9.9039°
argument of perigee: 107.4388°
revolutions per day: 14.19685440
mean anomaly at epoch: 252.7973°
orbit number at epoch: 49519

The dashed part of the orbit path shows where the satellite is in the earth's shadow,  

DLR